Clarinda, IA

12:36 PM CDT on July 22, 2017 (GMT -0500)
Schenck

Weather History for KICL - March, 2013

Change the Weather History Date:

Wednesday, March 20, 2013

  Actual Average Record
Temperature  
Mean Temperature 23 °F -  
Max Temperature 32 °F 50 °F 77 °F (2011)
Min Temperature 12 °F 27 °F 12 °F (2013)
Degree Days  
Heating Degree Days 42    
Moisture  
Dew Point 8 °F    
Average Humidity 58    
Maximum Humidity 86    
Minimum Humidity 32    
Precipitation  
Precipitation 0.00 in - - ()
Sea Level Pressure  
Sea Level Pressure 30.28 in    
Wind  
Wind Speed 11 mph (NNW)    
Max Wind Speed 17 mph    
Max Gust Speed 26 mph    
Visibility 10 miles    
Events      
Averages and records for this station are not official NWS values.
T = Trace of Precipitation, MM = Missing Value Source: NWS Daily Summary

Daily Weather History Graph

Daily Weather History Graph

Search for Another Location

Airport or City:

Trip Planner

Search our weather history database for the weather conditions in past years. The results will help you decide how hot, cold, wet, or windy it might be!

Date:

Astronomy

Mar. 20, 2013 Rise Set
Actual Time 7:23 AM CDT 7:32 PM CDT
Civil Twilight 6:55 AM CDT 7:59 PM CDT
Nautical Twilight 6:23 AM CDT 8:31 PM CDT
Astronomical Twilight 5:51 AM CDT 9:04 PM CDT
Moon 1:06 PM CDT (3/20) 3:05 AM CDT (3/20)
Length of Visible Light 13h 04m
Length of Day
12h 09m
First Quarter, 59% of the Moon is Illuminated
Mar 20
First Quarter
Mar 27
Full
Apr 2
Last Quarter
Apr 10
New
Apr 18
First Quarter

Hourly Weather History & Observations

Time (CDT) Temp. Windchill Dew Point Humidity Pressure Visibility Wind Dir Wind Speed Gust Speed Precip Events Conditions
12:15 AM 26.6 °F 16.2 °F 15.8 °F 64% 30.29 in 10.0 mi NNW 11.5 mph 16.1 mph N/A   Clear
12:35 AM 26.6 °F 16.2 °F 15.8 °F 64% 30.29 in 10.0 mi NNW 11.5 mph - N/A   Clear
12:55 AM 26.6 °F 17.5 °F 15.8 °F 64% 30.29 in 10.0 mi NW 9.2 mph - N/A   Clear
1:15 AM 24.8 °F 13.4 °F 15.8 °F 69% 30.30 in 10.0 mi NW 12.7 mph 19.6 mph N/A   Clear
1:35 AM 24.8 °F 14.0 °F 15.8 °F 69% 30.31 in 10.0 mi NW 11.5 mph - N/A   Clear
1:55 AM 24.8 °F 14.6 °F 15.8 °F 69% 30.31 in 10.0 mi NW 10.4 mph 17.3 mph N/A   Clear
2:15 AM 23.0 °F 12.4 °F 17.6 °F 80% 30.31 in 10.0 mi NNW 10.4 mph 18.4 mph N/A   Clear
2:35 AM 21.2 °F 8.3 °F 15.8 °F 80% 30.32 in 10.0 mi NNW 13.8 mph 18.4 mph N/A   Clear
2:55 AM 21.2 °F 10.1 °F 15.8 °F 80% 30.32 in 10.0 mi NNW 10.4 mph - N/A   Clear
3:15 AM 21.2 °F 7.8 °F 14.0 °F 74% 30.32 in 10.0 mi NW 15.0 mph - N/A   Clear
3:35 AM 19.4 °F 6.6 °F 12.2 °F 74% 30.34 in 10.0 mi NW 12.7 mph 23.0 mph N/A   Clear
3:55 AM 17.6 °F 4.3 °F 12.2 °F 79% 30.34 in 10.0 mi NW 12.7 mph 18.4 mph N/A   Clear
4:15 AM 17.6 °F 6.4 °F 10.4 °F 73% 30.35 in 10.0 mi NNW 9.2 mph - N/A   Clear
4:35 AM 17.6 °F 2.7 °F 8.6 °F 68% 30.34 in 10.0 mi NNW 16.1 mph 20.7 mph N/A   Clear
4:55 AM 17.6 °F 3.7 °F 8.6 °F 68% 30.34 in 10.0 mi NNW 13.8 mph 19.6 mph N/A   Clear
5:15 AM 15.8 °F 0.9 °F 8.6 °F 73% 30.35 in 10.0 mi NNW 15.0 mph 19.6 mph N/A   Clear
5:35 AM 15.8 °F 1.4 °F 8.6 °F 73% 30.35 in 10.0 mi NNW 13.8 mph 18.4 mph N/A   Clear
5:55 AM 15.8 °F 6.1 °F 8.6 °F 73% 30.36 in 10.0 mi NNW 6.9 mph - N/A   Clear
6:15 AM 15.8 °F 0.9 °F 6.8 °F 68% 30.36 in 10.0 mi NNW 15.0 mph 26.5 mph N/A   Clear
6:35 AM 15.8 °F 0.3 °F 6.8 °F 68% 30.36 in 10.0 mi NNW 16.1 mph 21.9 mph N/A   Clear
6:55 AM 15.8 °F 3.4 °F 6.8 °F 68% 30.36 in 10.0 mi NNW 10.4 mph 20.7 mph N/A   Clear
7:15 AM 15.8 °F -0.2 °F 6.8 °F 68% 30.36 in 10.0 mi NNW 17.3 mph 23.0 mph N/A   Clear
7:35 AM 15.8 °F 2.7 °F 6.8 °F 68% 30.37 in 10.0 mi NNW 11.5 mph 23.0 mph N/A   Clear
7:55 AM 15.8 °F 3.4 °F 6.8 °F 68% 30.37 in 10.0 mi NNW 10.4 mph - N/A   Clear
8:15 AM 15.8 °F 2.1 °F 6.8 °F 68% 30.38 in 10.0 mi North 12.7 mph 18.4 mph N/A   Clear
8:35 AM 15.8 °F -0.2 °F 5.0 °F 62% 30.39 in 10.0 mi NNW 17.3 mph 21.9 mph N/A   Clear
8:55 AM 15.8 °F 0.9 °F 6.8 °F 68% 30.39 in 10.0 mi NNW 15.0 mph 19.6 mph N/A   Clear
9:15 AM 15.8 °F 0.9 °F 6.8 °F 68% 30.38 in 10.0 mi North 15.0 mph 20.7 mph N/A   Clear
9:35 AM 17.6 °F 3.7 °F 6.8 °F 63% 30.38 in 10.0 mi North 13.8 mph - N/A   Clear
9:55 AM 17.6 °F 2.7 °F 5.0 °F 58% 30.38 in 10.0 mi NNW 16.1 mph 20.7 mph N/A   Clear
10:15 AM 19.4 °F 5.5 °F 5.0 °F 54% 30.38 in 10.0 mi North 15.0 mph 20.7 mph N/A   Clear
10:35 AM 21.2 °F 7.3 °F 5.0 °F 50% 30.38 in 10.0 mi North 16.1 mph 21.9 mph N/A   Clear
10:55 AM 21.2 °F 7.8 °F 5.0 °F 50% 30.37 in 10.0 mi North 15.0 mph 18.4 mph N/A   Clear
11:15 AM 21.2 °F 8.3 °F 6.8 °F 54% 30.37 in 10.0 mi North 13.8 mph 17.3 mph N/A   Clear
11:35 AM 21.2 °F 8.9 °F 3.2 °F 46% 30.37 in 10.0 mi NW 12.7 mph 19.6 mph N/A   Clear
11:55 AM 23.0 °F 11.1 °F 3.2 °F 43% 30.37 in 10.0 mi NW 12.7 mph 18.4 mph N/A   Clear
12:15 PM 24.8 °F 13.4 °F 3.2 °F 40% 30.36 in 10.0 mi NW 12.7 mph 21.9 mph N/A   Clear
12:35 PM 24.8 °F 16.1 °F 3.2 °F 40% 30.35 in 10.0 mi WNW 8.1 mph 17.3 mph N/A   Clear
12:55 PM 24.8 °F 12.9 °F 3.2 °F 40% 30.35 in 10.0 mi NW 13.8 mph 20.7 mph N/A   Clear
1:15 PM 26.6 °F 16.2 °F 3.2 °F 37% 30.34 in 10.0 mi NW 11.5 mph 18.4 mph N/A   Clear
1:35 PM 26.6 °F 15.7 °F 6.8 °F 43% 30.33 in 10.0 mi North 12.7 mph 20.7 mph N/A   Clear
1:55 PM 28.4 °F 16.6 °F 5.0 °F 37% 30.31 in 10.0 mi NNW 16.1 mph 20.7 mph N/A   Clear
2:15 PM 28.4 °F 17.5 °F 5.0 °F 37% 30.29 in 10.0 mi NW 13.8 mph 19.6 mph N/A   Clear
2:35 PM 28.4 °F 20.4 °F 6.8 °F 40% 30.28 in 10.0 mi NNW 8.1 mph - N/A   Clear
2:55 PM 30.2 °F 21.3 °F 6.8 °F 37% 30.26 in 10.0 mi NNW 10.4 mph 20.7 mph N/A   Clear
3:15 PM 30.2 °F 20.2 °F 3.2 °F 32% 30.25 in 10.0 mi NW 12.7 mph 20.7 mph N/A   Clear
3:35 PM 30.2 °F 18.9 °F 3.2 °F 32% 30.24 in 10.0 mi NNW 16.1 mph 19.6 mph N/A   Clear
3:55 PM 30.2 °F 21.3 °F 5.0 °F 34% 30.23 in 10.0 mi NW 10.4 mph 17.3 mph N/A   Clear
4:15 PM 30.2 °F 20.8 °F 3.2 °F 32% 30.22 in 10.0 mi NW 11.5 mph 17.3 mph N/A   Clear
4:35 PM 32.0 °F 24.2 °F 5.0 °F 32% 30.21 in 10.0 mi NNW 9.2 mph 17.3 mph N/A   Clear
4:55 PM 32.0 °F 23.0 °F 6.8 °F 35% 30.21 in 10.0 mi NW 11.5 mph - N/A   Clear
5:15 PM 32.0 °F 21.6 °F 5.0 °F 32% 30.20 in 10.0 mi WNW 15.0 mph 20.7 mph N/A   Clear
5:35 PM 32.0 °F 23.0 °F 5.0 °F 32% 30.19 in 10.0 mi NW 11.5 mph - N/A   Clear
5:55 PM 32.0 °F 21.6 °F 6.8 °F 35% 30.19 in 10.0 mi NNW 15.0 mph 20.7 mph N/A   Clear
6:15 PM 30.2 °F 20.2 °F 5.0 °F 34% 30.18 in 10.0 mi NNW 12.7 mph 17.3 mph N/A   Clear
6:35 PM 30.2 °F 21.9 °F 6.8 °F 37% 30.18 in 10.0 mi NNW 9.2 mph - N/A   Clear
6:55 PM 30.2 °F 21.9 °F 6.8 °F 37% 30.17 in 10.0 mi NNW 9.2 mph - N/A   Clear
7:15 PM 28.4 °F 20.4 °F 8.6 °F 43% 30.17 in 10.0 mi North 8.1 mph - N/A   Clear
7:35 PM 26.6 °F 19.1 °F 8.6 °F 47% 30.16 in 10.0 mi North 6.9 mph - N/A   Clear
7:55 PM 24.8 °F 17.9 °F 10.4 °F 54% 30.16 in 10.0 mi North 5.8 mph - N/A   Clear
8:15 PM 24.8 °F 20.5 °F 10.4 °F 54% 30.15 in 10.0 mi North 3.5 mph - N/A   Clear
8:35 PM 21.2 °F 16.4 °F 8.6 °F 58% 30.16 in 10.0 mi North 3.5 mph - N/A   Clear
8:55 PM 21.2 °F - 10.4 °F 63% 30.16 in 10.0 mi Calm Calm - N/A   Clear
9:15 PM 21.2 °F 14.9 °F 10.4 °F 63% 30.16 in 10.0 mi North 4.6 mph - N/A   Clear
9:35 PM 17.6 °F - 10.4 °F 73% 30.16 in 10.0 mi Calm Calm - N/A   Clear
9:55 PM 17.6 °F - 10.4 °F 73% 30.16 in 10.0 mi Calm Calm - N/A   Clear
10:15 PM 15.8 °F - 10.4 °F 79% 30.15 in 10.0 mi Calm Calm - N/A   Clear
10:35 PM 15.8 °F - 10.4 °F 79% 30.15 in 10.0 mi Calm Calm - N/A   Clear
10:55 PM 15.8 °F - 10.4 °F 79% 30.14 in 10.0 mi Calm Calm - N/A   Clear
11:15 PM 14.0 °F - 10.4 °F 86% 30.14 in 10.0 mi Calm Calm - N/A   Clear
11:35 PM 14.0 °F - 10.4 °F 86% 30.13 in 10.0 mi Calm Calm - N/A   Clear
11:55 PM 12.2 °F - 8.6 °F 85% 30.13 in 10.0 mi Calm Calm - N/A   Clear